www.pogodaiklimat.ru

Погода и климат >> Архив погоды >> Мексика >> Empalme


ПОГОДА в Empalme

  • Прогноз погоды в Empalme
  • Монитор погоды в Empalme
  • Климат города

АРХИВ ПОГОДЫ в Empalme

Время (UTC), дата Ветер
(напр.,м/с)
 
Видим.   Явления Облачность Т
(С)
Тd
(С)
f
(%)
Тe
(С)
Тes
(С)
Комфортность P
(гПа)
Po
(гПа)
Тmin
(С)
Tmax
(С)
R
(мм)
R24
(мм)
S
(см)
03 16.07 Ю 1 10 км 9/0 2000 м
[Ac As]
+30.2 +27.0 83 +47 +47 опасность
перегрева
1013.3 1011.9
12 16.07 СВ 1 10 км 9/0 2000 м
[Ac As]
+28.0 +22.7 73 +37 +37 очень
душно
1013.5 1012.1 +27.7 +36.5
15 16.07 В 1 30 км 8/0
[Ac trans]
+31.0 +22.4 60 +40 +44 очень
душно
1013.7 1012.4
18 16.07 ЮВ 2 30 км 5/0
[Ac trans]
+35.0 +22.7 49 +45 +58 опасность
перегрева
1014.0 1012.7 +27.7 +36.0
21 16.07 ЮЗ 3 30 км 6/0
[Ac trans]
+36.8 +22.3 43 +45 +55 опасность
перегрева
1012.0 1010.7
00 17.07 ЮВ 1 30 км 10/0 2000 м
[Ac As]
+30.2 +23.5 67 +41 +42 опасность
перегрева
1012.1 1010.7 +27.7 +37.2
03 17.07 Ю 1 10 км 10/0 2000 м
[Ac As]
+28.5 +24.1 77 +40 +40 очень
душно
1012.9 1011.5
12 17.07 штиль 0 10 км 8/8 600 м
[Sc diur, vesp]
+26.8 +24.1 85 +37 +37 очень
душно
1014.0 1012.6 +26.1 +37.2
15 17.07 СВ 3 30 км слабая морось 10/0
[As op]
+24.0 +24.0 100 +33 +34 очень
душно
1015.6 1014.2 6
18 17.07 Ю 2 30 км 10/0
[Ac trans]
+30.0 +24.9 74 +43 +51 опасность
перегрева
1015.2 1013.8 +25.0 +30.7
21 17.07 ЮЗ 5 30 км 10/10 600 м
[Sc diur, vesp]
+28.3 +24.2 78 +39 +39 очень
душно
1015.4 1014.0
21 18.07 ЮЗ 1 30 км 5/5 800 м
[Cu med, cong]
+32.6 +23.9 60 +44 +55 опасность
перегрева
1015.3 1013.9
00 19.07 штиль 0 30 км 5/5 600 м
[Cb calv]
+33.4 +20.1 46 +40 +43 очень
душно
1014.5 1013.1 +25.0 +34.1
03 19.07 штиль 0 10 км 5/0 2000 м
[Ac trans]
+29.4 +23.7 71 +40 +40 очень
душно
1013.2 1011.8
12 19.07 С 1 10 км ясно +25.5 +22.0 81 +33 +33 очень
душно
1015.5 1014.1 +25.1 +34.1
15 19.07 СЗ 2 30 км 3/0
[Ac trans]
+29.5 +21.8 63 +38 +42 очень
душно
1014.4 1013.0
18 19.07 штиль 0 30 км ясно +37.0 +19.2 35 +42 +68 опасность
перегрева
1013.8 1012.4 +24.7 +37.7
21 19.07 ЮЗ 4 30 км ясно +37.2 +20.4 38 +43 +56 опасность
перегрева
1012.4 1011.0
00 20.07 Ю 1 30 км ясно +36.3 +19.2 37 +41 +47 опасность
перегрева
1010.6 1009.2 +24.7 +37.9
03 20.07 З 1 10 км ясно +33.5 +20.0 45 +40 +40 очень
душно
1011.0 1009.6
12 20.07 СЗ 1 10 км ясно +27.3 +19.7 63 +33 +33 очень
душно
1011.3 1009.9 +27.0 +37.9
15 20.07 штиль 0 30 км ясно +31.2 +19.4 50 +37 +45 очень
душно
1012.8 1011.5
18 20.07 ЮЗ 1 30 км ясно +37.0 +19.9 37 +43 +65 опасность
перегрева
1012.4 1011.0 +27.0 +38.6
21 20.07 ЮЗ 3 30 км ясно +38.6 +20.2 35 +33 +49 жарко 1009.7 1008.3
00 21.07 ЮЗ 1 30 км 9/0
[Cs]
+38.0 +19.6 34 +43 +47 опасность
перегрева
1008.2 1006.8 +27.0 +39.5
03 21.07 штиль 0 10 км 9/0
[Cs]
+35.8 +17.5 34 +39 +39 очень
душно
1009.2 1007.8
12 21.07 штиль 0 10 км ясно +30.6 +25.9 76 +46 +46 опасность
перегрева
1012.1 1011.2 +29.5 +39.5
15 21.07 ЮЗ 2 30 км 1/0
[Ac trans]
+32.5 +25.1 65 +46 +52 опасность
перегрева
1012.9 1011.5
18 21.07 ЮЗ 3 30 км 1/0
[Ci fib]
+34.5 +23.8 54 +46 +62 опасность
перегрева
1013.6 1012.2 +29.5 +35.1
21 21.07 ЮЗ 5 30 км ясно +36.5 +23.4 47 +47 +57 опасность
перегрева
1012.6 1011.2
00 22.07 ЮЗ 6 30 км ясно +36.6 +24.0 49 +48 +50 опасность
перегрева
1011.2 1009.8 +29.5 +37.0
15 22.07 С 2 30 км 1/0
[Ac cuf]
+31.2 +26.7 77 +48 +53 опасность
перегрева
1013.7 1012.3
18 22.07 З 3 30 км ясно +36.2 +23.8 49 +47 +64 опасность
перегрева
1013.0 1011.6 +28.0 +37.2
21 22.07 ЮЗ 3 30 км ясно +38.0 +23.1 43 +48 +63 опасность
перегрева
1010.4 1009.1
00 23.07 ЮЗ 5 30 км ясно +40.0 +21.1 34 +47 +49 опасность
перегрева
1008.5 1007.1 +28.0 +40.8

 

Местоположение метеостанции Empalme (Мексика): широта 27.95 долгота -110.70 высота над уровнем моря 12 м.

В архиве по умолчанию представлена погода в Empalme за последнюю неделю. Архивные данные за месяц целиком и за предыдущие месяцы, начиная с января 2011 года, Вы можете получить, выбрав интересующий диапазон дат из раскрывающегося списка и нажав кнопку "Ввод!".


*Определитесь, кто Вы:
робот инопланетянин человек

Внимание! Время в таблицах - всемирное. Для получения местного времени необходимо прибавить поправку, которая в Empalme равна -7 ч.

Смотрите также архив погоды в соседних городах и на ближайших метеорологических станциях:

Погода в Guaymas (Мексика) (18 км)
Погода в Ciudad Obregon (Мексика) (106 км)
Погода в Hermosillo la Magna (Мексика) (128 км)
Погода в Hermosillo (Мексика) (131 км)
Погода в Santa Rosalia (Мексика) (170 км)
Погода в Loreto (Мексика) (223 км)
Погода в Choix (Мексика) (282 км)
Погода в Pilares de Nacoz (Мексика) (287 км)
Погода в Temosachic (Мексика) (305 км)
Погода в Altar Son (Мексика) (326 км)

Пояснения к столбцам:

Ветер - указаны скорость ветра в м/с - средняя за 10 мин, порывы в срок и между сроками (в фигурных скобках) и направление, откуда дует ветер: С - северный, СВ - северо-восточный, В - восточный, ЮВ - юго-восточный, Ю - южный, ЮЗ - юго-западный, З - западный, СЗ - северо-западный.
Видимость - горизонтальная дальность видимости в метрах или километрах. При видимости от 1 до 10 км при отсутствии осадков обычно наблюдается дымка, при ухудшении видимости до 1 км и менее - туман. В сухую погоду видимость может ухудшаться дымом, пылью или мглою.
Явления - указаны атмосферные явления, наблюдавшиеся в срок или в последний час перед сроком; фигурными скобками обозначены явления, наблюдавшиеся между сроками (за 1-3 часа до срока); квадратными скобками обозначены град или гололедные отложения с указанием их диаметра в мм.
Облачность - указаны через наклонную черту общая и нижняя облачность в баллах и высота нижней границы облаков в метрах; квадратными скобками обозначены формы облаков: Ci - перистые, Cs - перисто-слоистые, Cc - перисто-кучевые, Ac - высококучевые, As - высокослоистые, Sc - слоисто-кучевые, Ns - слоисто-дождевые, Cu - кучевые, Cb - кучево-дождевые. Подробнее классификацию облаков см. в Атласе облаков (PDF).
T - Температура воздуха - температура, измеренная на высоте 2 м над землей.
Td - Температура точки росы - температура, при понижении до которой содержащийся в воздухе водяной пар достигнет насыщения.
f - Относительная влажность воздуха - влажноcть воздуха, измеренная на высоте 2 м над землей.
Te - Эффективная температура - температура, которую ощущает одетый по сезону человек в тени. Характеристика душности погоды. При расчете учитывается влияние влажности воздуха и скорости ветра на теплоощущения человека.
Tes - Эффективная температура на солнце - температура, которую ощущает человек, с поправкой на солнечный нагрев. Характеристика знойности погоды. Зависит от высоты солнца над горизонтом, облачности и скорости ветра. Ночью, в пасмурную погоду, а также при ветре 12 м/с и более поправка равна нулю.
P - Атмосферное давление - приведенное к уровню моря атмосферное давление.
Po - Атмосферное давление - измеренное на уровне метеостанции атмосферное давление.
Tmin - Минимальная температура - минимум температуры воздуха на высоте 2 м над землей.
Tmax - Максимальная температура - максимум температуры воздуха на высоте 2 м над землей.
R - Количество осадков - Количество выпавших осадков за период времени, мм. При наведении курсора мыши на число - период времени, за который выпало указанное количество осадков.
R24 - Количество осадков - Количество выпавших осадков за 24 часа, мм.
S - Снежный покров - Высота снежного покрова, см. При наведении курсора мыши на число - состояние снежного покрова и степень покрытия местности в баллах.